Home > Time Zones > World Clock > Weather > Chad > Sarh > Past weeks

Flag for Chad Weather past 2 weeks in Sarh, Chad

Now
93 °F

Clear.


Feels Like: 90 °F
Forecast: 79 / 105 °F
Wind: No wind

Location: Sarh Airport

Current Time: Apr 21, 2015 at 4:44:25 AM

Latest Report: Apr 21, 2015 at 3:00 AM


Visibility: 10 mi

Pressure: 29.80 "Hg

Humidity: 20%

Dew point: 46 °F

Location of SarhLocation

Historic Weather in Sarh — Graph

°F

Sarh temperature yesterday

Maximum temperature yesterday: 104 °F (at 2:00 PM)
Minimum temperature yesterday: 75 °F (at 7:00 AM)
Average temperature yesterday: 90 °F

Past Weeks' High & Low Weather Summary

 TemperatureHumidityPressure
High106 °F (Apr 9, 3:00 PM)65% (Apr 10, 4:00 AM)30.01 "Hg (Apr 10, 4:00 AM)
Low70 °F (Apr 16, 6:00 AM)4% (Apr 17, 10:00 AM)29.71 "Hg (Apr 8, 7:00 PM)
Average91 °F25%29.85 "Hg
* Reported Apr 8 7:00 PM — Apr 21 3:00 AM, Sarh, Weather by CustomWeather, © 2015

Note: Actual official high and low records may vary slightly from our data, if they occured in-between our weather recording intervals... More about our weather records

Advertising

Sarh weather history for previous 24 hours

 ConditionsComfort  
Time TempWeatherWind HumidityBarometerVisibility
3:00 AM
Tue, Apr 21
93 °FClear.No wind20%29.80 "Hg10 mi
2:00 AM75 °FClear.No wind36%29.80 "Hg10 mi
1:00 AM75 °FClear.No wind44%29.80 "Hg10 mi
12:00 AM79 °FClear.No wind30%29.80 "Hg10 mi
11:00 PM
Mon, Apr 20
79 °FSmoke.No wind30%29.80 "HgN/A
10:00 PM81 °FClear.No wind30%29.80 "Hg10 mi
9:00 PM84 °FClear.No wind23%29.80 "Hg10 mi
8:00 PM88 °FClear.No wind24%29.80 "Hg10 mi
7:00 PM93 °FClear.No wind24%29.80 "Hg10 mi
5:00 PM102 °FSunny.No wind9%29.77 "Hg10 mi
3:00 PM104 °FSunny.5 mph9%29.80 "Hg10 mi
2:00 PM104 °FSunny.5 mph7%29.80 "Hg10 mi
1:00 PM102 °FSunny.5 mph8%29.83 "Hg10 mi
12:00 PM100 °FSunny.No wind8%29.86 "Hg10 mi
11:00 AM99 °FSunny.5 mph8%29.89 "Hg10 mi
10:00 AM95 °FSunny.7 mph11%29.89 "Hg10 mi
9:00 AM93 °FSunny.7 mph9%29.92 "Hg10 mi
8:00 AM81 °FSunny.5 mph32%29.92 "Hg10 mi
7:00 AM75 °FSunny.No wind50%29.89 "Hg10 mi
6:00 AM81 °FSunny.No wind37%29.86 "Hg10 mi
Weather by CustomWeather, © 2015

See weather overviewHow to use our weather pages